[[{"header":{"parameterUnit":"m.s-1","parameterCategory":1,"la1":30.2992,"la2":30.254,"lo1":-89.0895,"lo2":-89.0443,"dy":0.0025,"dx":0.0025,"nx":19,"ny":19,"refTime":"2026-04-30T03:00:00:Z","depth":0,"parameterNumber":2,"parameterNumberName":"U-component_of_WINDS"},"data":[0,0,0,-0.8991,-0.8992,-0.9023,-0.9024,-0.9052,-0.9052,0,0,0,0,0,0,0,0,0,0,0,-0.8976,-0.8976,-0.8991,-0.8992,-0.9023,-0.9024,-0.9052,-0.9052,0,0,0,0,0,0,0,0,0,0,0,-0.8976,-0.8976,-0.8976,-0.8992,-0.9023,-0.9024,-0.9052,-0.9032,0,0,0,0,0,0,0,0,0,0,-0.9003,-0.8983,-0.8976,-0.8976,-0.8992,-0.9023,-0.9024,-0.9031,-0.9033,-0.9032,0,-0.9031,0,-0.9042,-0.9053,-0.9053,0,0,0,-0.8996,-0.8981,-0.8995,-0.8976,-0.8992,-0.9023,-0.901,-0.9032,-0.9034,-0.9035,-0.9032,-0.9033,-0.9043,-0.9053,-0.9053,-0.9037,-0.9037,0,0,-0.8994,-0.8978,-0.8994,-0.8997,-0.8993,-0.9009,-0.9011,-0.9034,-0.9029,-0.9032,-0.9034,-0.9043,-0.9053,-0.9053,-0.9038,-0.9037,0,0,0,-0.8986,-0.8976,-0.899,-0.8995,-0.9002,-0.901,-0.9012,-0.9028,-0.9034,-0.9035,-0.9043,-0.9053,-0.9054,-0.9038,-0.9038,-0.9007,0,0,0,-0.8985,-0.8972,-0.8989,-0.8979,-0.9001,-0.9016,-0.9006,-0.9032,-0.9035,-0.9043,-0.9053,-0.9054,-0.9038,-0.9038,-0.9008,-0.8994,0,0,0,-0.8975,-0.8971,-0.8973,-0.8978,-0.8992,-0.9016,-0.9023,-0.9033,-0.9041,-0.9053,-0.9054,-0.9039,-0.9038,-0.901,-0.8997,-0.8984,0,0,0,-0.896,-0.8946,-0.8973,-0.8961,-0.8991,-0.8998,-0.9023,-0.9029,-0.9036,-0.9053,-0.9038,-0.9038,-0.901,-0.8998,-0.8985,-0.8968,-0.896,0,0,-0.8934,-0.8943,-0.8937,-0.8961,-0.8958,-0.8994,-0.8986,-0.9008,-0.9025,-0.9032,-0.9032,-0.9008,-0.8997,-0.8984,-0.8926,-0.8919,0,0,0,-0.8923,-0.8918,-0.8921,-0.8928,-0.8945,-0.8957,-0.8982,-0.899,-0.8997,-0.9025,-0.9002,-0.8996,-0.8988,-0.8981,-0.8975,-0.8969,-0.9034,-0.9034,-0.9034,-0.8861,-0.8882,-0.8873,-0.8898,-0.8904,-0.893,-0.8935,-0.895,-0.8971,-0.8964,-0.8966,-0.8928,-0.8919,-0.8915,-0.8908,-0.8961,-0.8961,-0.8961,-0.8961,-0.8822,-0.8817,-0.8845,-0.8845,-0.8868,-0.8868,-0.8892,-0.8906,-0.8908,-0.8929,-0.8924,-0.8943,-0.8907,-0.8902,-0.8959,-0.8959,-0.8959,-0.8959,-0.896,-0.8781,-0.8783,-0.8793,-0.8804,-0.8809,-0.8835,-0.8835,-0.8856,-0.8876,-0.8871,-0.8873,-0.8874,-0.8874,-0.8871,-0.8871,-0.8871,-0.8871,-0.8871,-0.8871,-0.8734,-0.8747,-0.8746,-0.8762,-0.8768,-0.8778,-0.8803,-0.8809,-0.8821,-0.8835,-0.8835,-0.8854,-0.8901,-0.8911,-0.8869,-0.8869,-0.8869,-0.8869,-0.8869,-0.8682,-0.8697,-0.8695,-0.8701,-0.872,-0.8722,-0.875,-0.876,-0.8768,-0.8767,-0.8787,-0.8819,-0.883,-0.8834,-0.8842,-0.8785,-0.8785,-0.8785,-0.8785,-0.8646,-0.8654,-0.8655,-0.8663,-0.8673,-0.8696,-0.869,-0.8709,-0.8731,-0.8736,-0.8748,-0.8762,-0.8765,-0.8773,-0.8779,-0.8786,-0.8716,-0.8716,-0.8716,-0.8614,-0.8624,-0.8615,-0.8637,-0.8654,-0.8667,-0.8661,-0.8667,-0.8695,-0.8714,-0.874,-0.8743,-0.8765,-0.8772,-0.8788,-0.8797,-0.8811,0,0]},{"header":{"parameterUnit":"m.s-1","parameterCategory":1,"la1":30.2992,"la2":30.254,"lo1":-89.0895,"lo2":-89.0443,"dy":0.0025,"dx":0.0025,"nx":19,"ny":19,"refTime":"2026-04-30T03:00:00:Z","depth":0,"parameterNumber":3,"parameterNumberName":"V-component_of_WINDS"},"data":[0,0,0,-2.4732,-2.4737,-2.4987,-2.4988,-2.5247,-2.5249,0,0,0,0,0,0,0,0,0,0,0,-2.4624,-2.4625,-2.4732,-2.4737,-2.4987,-2.4988,-2.5247,-2.5249,0,0,0,0,0,0,0,0,0,0,0,-2.4624,-2.4625,-2.4626,-2.4738,-2.4987,-2.4988,-2.5246,-2.5079,0,0,0,0,0,0,0,0,0,0,-2.4846,-2.4714,-2.4625,-2.4626,-2.4739,-2.4986,-2.4988,-2.5072,-2.5089,-2.5109,0,-2.512,0,-2.5188,-2.5263,-2.5263,0,0,0,-2.4762,-2.4699,-2.4798,-2.4626,-2.4741,-2.4986,-2.4881,-2.5082,-2.5102,-2.5132,-2.5124,-2.5135,-2.5192,-2.5264,-2.5265,-2.5299,-2.5298,0,0,-2.4748,-2.4651,-2.4784,-2.4809,-2.4769,-2.4873,-2.4889,-2.5095,-2.5079,-2.5125,-2.5142,-2.5197,-2.5265,-2.5267,-2.5301,-2.5299,0,0,0,-2.4692,-2.464,-2.4735,-2.4796,-2.4846,-2.488,-2.4898,-2.507,-2.5109,-2.5146,-2.52,-2.5267,-2.5269,-2.5302,-2.53,-2.5155,0,0,0,-2.4685,-2.4607,-2.4727,-2.467,-2.4841,-2.4962,-2.4867,-2.5095,-2.5121,-2.5198,-2.5267,-2.5271,-2.5303,-2.5301,-2.5161,-2.5101,0,0,0,-2.462,-2.46,-2.4625,-2.4664,-2.4768,-2.4961,-2.5013,-2.5103,-2.5153,-2.5264,-2.5272,-2.5304,-2.5301,-2.5167,-2.5112,-2.508,0,0,0,-2.4521,-2.4493,-2.4621,-2.4609,-2.4765,-2.487,-2.5013,-2.5095,-2.5173,-2.5268,-2.5303,-2.53,-2.5169,-2.5118,-2.5086,-2.5034,-2.5005,0,0,-2.443,-2.4478,-2.4479,-2.4601,-2.4658,-2.484,-2.4875,-2.5038,-2.5138,-2.5239,-2.5241,-2.5159,-2.5112,-2.5081,-2.4876,-2.4851,0,0,0,-2.4417,-2.4416,-2.4453,-2.4522,-2.4647,-2.4747,-2.4916,-2.4976,-2.5067,-2.5171,-2.5144,-2.5119,-2.5105,-2.5084,-2.5064,-2.5056,-2.5288,-2.5288,-2.5288,-2.4147,-2.4276,-2.4285,-2.4443,-2.4509,-2.4682,-2.4746,-2.4856,-2.4968,-2.4958,-2.4988,-2.4848,-2.4821,-2.4806,-2.4797,-2.4974,-2.4974,-2.4973,-2.4973,-2.4023,-2.4041,-2.4189,-2.4251,-2.4386,-2.4439,-2.4603,-2.4679,-2.4746,-2.4837,-2.4831,-2.4916,-2.4775,-2.4774,-2.4963,-2.4965,-2.4966,-2.4967,-2.4968,-2.3859,-2.389,-2.3964,-2.4077,-2.4148,-2.4309,-2.4366,-2.4488,-2.4603,-2.4597,-2.464,-2.4643,-2.4658,-2.461,-2.4609,-2.4609,-2.4608,-2.4608,-2.4608,-2.3658,-2.3747,-2.3781,-2.3908,-2.3968,-2.4061,-2.4233,-2.4294,-2.4393,-2.4477,-2.4478,-2.4586,-2.4739,-2.4773,-2.4601,-2.4602,-2.4603,-2.4603,-2.4604,-2.3481,-2.354,-2.3592,-2.3651,-2.381,-2.387,-2.4026,-2.4139,-2.4207,-2.423,-2.4342,-2.4435,-2.4492,-2.451,-2.4538,-2.4316,-2.4316,-2.4316,-2.4316,-2.334,-2.3381,-2.346,-2.3546,-2.3645,-2.3789,-2.384,-2.3971,-2.4117,-2.4167,-2.4217,-2.4266,-2.4279,-2.4329,-2.435,-2.4378,-2.412,-2.412,-2.412,-2.3237,-2.3293,-2.3313,-2.3458,-2.359,-2.37,-2.375,-2.3841,-2.4019,-2.4115,-2.4207,-2.4215,-2.4297,-2.4317,-2.4412,-2.4443,-2.4498,0,0]}]]